Wind_Speed
10 11 12 13 14 14 14 16 17 20 23 25 26 28 32 38 42 45 50 55 60 65 70 73 76 79 82 85 87 87 86 82 76 72 68 66 64 64 64 65 65 65 65 64
9 10 11 12 13 14 15 17 18 17 21 26 28 29 32 39 43 48 53 59 64 70 74 76 79 81 84 85 86 85 81 77 75 73 72 70 68 66 65 64 63 63 63 63
10 11 13 15 15 16 18 20 21 22 23 27 33 32 35 41 46 52 57 63 69 74 77 78 81 83 84 84 83 81 79 78 75 70 65 60 55 52 51 50 50 50 50 51
11 12 14 16 17 18 19 19 20 24 27 28 31 38 40 45 51 57 62 67 74 78 78 80 83 85 85 84 82 81 79 74 66 60 56 53 51 50 49 48 48 47 46 45
12 13 14 16 17 18 19 20 23 26 28 29 33 41 46 51 56 61 66 72 77 79 80 82 84 86 85 82 81 79 72 64 59 56 54 53 53 55 55 53 51 48 47 45
14 15 16 17 18 20 20 21 23 28 32 37 42 45 49 53 59 65 71 76 78 80 81 83 85 84 82 82 80 72 65 60 57 56 55 56 57 58 57 55 52 49 47 46
15 16 17 18 19 21 22 25 29 33 37 40 43 45 50 57 63 68 72 76 79 81 82 84 84 82 81 81 74 66 62 60 58 57 57 58 59 60 58 55 51 48 46 45
16 16 17 19 20 22 23 25 28 33 36 38 44 49 54 59 63 68 72 77 79 81 82 84 83 81 81 76 68 64 62 61 60 59 58 60 61 59 55 51 48 46 45 44
18 18 19 20 21 22 24 26 28 33 38 44 47 51 55 60 65 69 74 78 79 81 83 83 81 81 78 70 65 64 63 61 60 59 59 61 61 56 51 48 48 47 46 46
18 18 19 20 20 22 25 28 32 35 41 46 49 52 57 61 66 72 76 77 80 81 82 80 80 80 73 66 64 64 63 62 60 59 61 61 57 52 50 50 50 48 46 45
19 19 19 19 20 23 26 29 33 37 41 46 51 54 58 62 67 73 77 78 80 80 80 79 80 76 68 64 63 63 63 62 61 61 60 58 55 52 51 51 50 49 47 45
20 19 19 19 21 24 27 32 35 38 41 44 49 55 59 63 68 74 77 77 78 79 79 80 78 71 65 63 63 63 63 63 62 61 58 56 54 53 52 52 51 51 49 47
21 21 21 21 22 24 28 31 35 39 41 45 50 55 59 64 69 73 75 76 78 78 79 78 73 67 63 63 63 63 63 63 62 59 57 56 54 53 54 55 55 54 53 52
20 21 23 26 27 29 32 33 36 39 43 47 51 55 59 63 69 73 76 77 78 78 78 75 70 64 62 62 63 63 63 63 60 58 57 56 56 56 57 57 58 58 58 56
21 21 23 25 27 28 31 34 37 39 43 47 52 56 59 64 69 74 76 76 77 77 76 72 66 62 61 61 62 63 63 61 58 57 56 57 58 59 60 60 61 62 63 61
25 24 24 24 25 27 30 34 37 40 44 48 53 57 61 66 70 73 74 75 76 76 75 70 63 60 60 61 62 63 63 60 57 56 57 59 61 61 61 62 63 66 66 61
30 31 30 28 28 30 34 39 41 42 45 50 54 58 62 67 71 73 74 74 75 76 73 66 60 58 60 62 63 63 62 58 55 55 58 61 63 63 63 64 67 69 67 57
37 37 36 35 36 35 38 41 43 44 46 51 55 59 63 67 72 73 73 74 75 74 70 64 58 57 60 62 62 62 61 57 55 56 60 63 65 65 65 67 70 70 64 51
40 41 40 41 43 41 40 42 44 47 47 52 56 61 64 67 72 72 72 73 74 73 69 63 57 56 60 62 62 61 60 57 55 56 60 64 66 66 67 69 72 71 60 46
37 42 43 45 46 47 46 45 45 47 49 53 57 61 64 67 70 70 71 72 73 72 68 62 56 55 59 62 61 61 60 57 55 56 61 65 67 67 68 71 74 72 60 44
38 41 45 49 49 50 52 48 46 47 50 54 57 60 63 66 69 69 70 71 72 71 68 61 56 55 59 61 61 60 60 58 56 57 61 64 67 68 69 71 75 74 62 46
40 43 47 53 57 56 56 51 46 46 49 53 56 59 61 65 68 68 69 70 71 70 67 61 56 55 57 60 60 59 60 58 56 57 60 63 66 68 69 71 73 75 67 50
41 44 47 51 55 58 57 51 46 46 48 52 56 57 60 64 67 67 68 69 70 69 66 61 55 54 56 58 59 58 59 58 56 57 59 61 64 68 69 69 71 74 72 59
41 44 46 50 55 58 58 53 47 46 48 53 56 57 60 64 66 66 67 68 68 68 65 60 55 53 54 57 58 57 57 58 57 57 57 59 62 66 68 69 70 72 74 69
43 45 47 50 54 58 59 55 49 47 50 53 55 57 61 64 65 66 67 67 67 67 64 60 55 52 53 55 56 56 56 57 57 56 56 57 60 63 67 69 70 71 73 74
43 45 47 49 53 58 60 58 52 50 51 54 55 58 61 64 65 66 66 66 65 66 64 60 55 51 51 53 54 54 54 56 56 56 56 56 57 60 63 67 69 69 69 70
Wind_Direction
301 304 311 317 319 320 322 322 324 327 326 329 332 335 333 325 325 325 325 324 323 322 323 323 322 322 322 322 322 321 318 316 315 314 311 307 303 299 295 292 289 287 284 282
313 314 319 324 323 325 324 321 321 324 326 330 332 335 331 326 328 329 328 327 326 325 326 325 324 324 325 324 323 321 319 318 317 315 312 309 306 303 300 298 295 292 288 284
322 323 324 325 327 326 321 321 325 330 335 335 330 329 332 329 330 330 330 329 328 328 329 328 327 327 326 325 324 323 322 321 319 318 317 316 316 314 311 308 305 301 297 292
338 336 332 330 328 324 322 328 333 334 335 334 328 330 336 333 333 333 332 332 332 333 331 329 328 328 327 326 326 325 324 324 323 324 324 324 323 321 318 315 311 308 305 300
339 335 333 332 331 330 333 336 335 332 331 331 334 338 340 337 335 334 335 336 336 334 332 330 330 329 328 327 327 327 327 326 326 326 326 326 325 323 321 318 314 310 306 303
339 337 337 337 337 337 337 334 332 334 336 341 342 341 338 336 337 337 338 337 336 334 333 332 331 329 329 328 329 330 329 327 327 328 327 326 325 323 321 318 315 311 307 303
345 343 344 345 344 341 340 340 339 340 341 340 337 338 340 340 340 340 338 336 335 334 334 333 331 330 329 330 331 332 331 330 330 329 328 327 326 324 322 320 318 315 311 307
351 350 349 348 347 346 343 340 338 338 336 336 338 342 342 340 340 339 336 335 336 336 335 334 333 331 331 332 334 334 333 332 332 331 330 330 329 327 325 323 322 319 317 314
353 352 350 349 347 346 342 339 339 337 337 341 343 341 341 341 339 338 337 338 338 338 336 335 333 332 333 335 336 336 335 335 334 334 333 332 331 330 328 326 324 321 319 317
353 351 350 348 348 344 340 339 338 341 342 340 341 343 341 340 340 339 339 339 340 339 337 336 335 334 335 337 337 337 337 337 337 336 334 335 335 333 331 329 327 324 321 320
350 351 351 349 346 342 340 340 342 342 342 341 340 341 339 341 342 341 341 342 341 340 338 337 336 336 337 339 339 339 340 340 340 338 338 339 338 336 333 331 329 327 324 321
348 348 350 349 346 342 340 340 341 340 340 339 337 338 340 342 342 343 343 343 341 340 339 338 338 338 340 341 341 341 342 342 342 342 342 341 340 338 336 334 332 329 325 321
347 347 346 348 347 342 340 339 339 338 337 337 338 339 340 342 343 343 343 343 342 342 341 340 340 340 342 342 343 343 344 345 345 345 345 343 341 339 337 335 332 329 325 321
350 347 346 346 347 343 339 339 337 335 336 338 340 340 341 342 343 343 344 344 343 343 342 342 342 342 343 344 345 345 346 347 347 347 347 345 342 340 337 334 331 328 325 320
355 351 348 346 345 341 334 333 334 335 336 338 340 341 342 342 343 344 345 344 344 344 344 344 343 344 345 347 347 348 348 348 349 350 349 346 343 340 337 335 332 329 326 321
358 355 350 345 341 337 332 333 336 337 337 339 340 342 343 343 345 345 345 345 345 345 346 346 345 345 347 349 349 350 350 350 351 351 351 348 345 343 341 338 336 333 331 327
3 359 354 346 339 337 334 336 336 338 338 339 341 343 343 344 345 346 346 346 347 347 348 348 347 347 349 351 352 352 352 353 353 353 352 350 349 348 346 343 342 340 337 335
8 4 0 353 346 342 337 335 335 338 339 339 340 342 343 344 345 347 346 347 349 348 349 350 349 350 351 353 354 354 354 354 354 354 355 354 353 352 351 350 349 346 343 342
10 5 1 358 353 347 339 335 335 337 340 339 340 342 343 344 345 347 347 348 349 350 351 351 350 351 353 355 356 356 356 356 355 356 357 357 357 357 356 355 355 353 351 349
4 5 2 358 354 350 345 337 334 336 338 340 340 341 343 344 345 347 347 348 350 351 352 352 351 351 354 356 357 357 358 358 357 358 359 360 1 1 1 0 1 1 359 357
356 358 359 357 354 351 346 340 336 336 337 339 340 341 343 344 346 347 348 349 351 352 353 353 352 352 354 357 358 358 359 360 359 360 1 2 4 5 5 5 7 7 6 6
352 353 354 354 354 351 347 342 337 335 336 337 339 341 342 344 346 347 348 350 351 353 354 354 353 353 355 358 359 360 1 1 1 2 3 4 6 8 9 9 11 13 13 13
348 349 351 351 351 350 348 343 338 334 335 337 339 341 342 344 347 347 348 350 352 354 355 356 355 355 356 359 0 1 3 3 4 5 5 6 9 11 12 13 15 18 19 19
343 345 347 348 348 349 348 345 339 334 334 336 338 340 342 345 347 347 348 350 353 355 356 357 356 356 358 360 1 3 4 5 6 6 6 8 11 13 15 17 19 21 23 24
339 341 343 345 346 347 347 346 340 335 334 336 338 340 342 345 347 347 348 350 353 355 357 357 357 358 359 1 2 4 5 7 8 8 7 9 12 15 17 20 21 23 25 27
334 336 339 342 343 345 345 346 342 336 334 337 338 339 342 344 346 347 348 350 353 356 357 358 358 358 -0 2 3 5 7 8 9 10 9 10 13 16 19 22 24 25 27 29
Height
5880 5880 5877 5876 5874 5872 5870 5869 5867 5864 5860 5857 5854 5852 5846 5839 5834 5827 5819 5810 5801 5790 5778 5765 5752 5738 5723 5708 5692 5676 5660 5644 5631 5619 5609 5600 5591 5581 5573 5565 5558 5553 5548 5544
5880 5878 5876 5875 5873 5871 5869 5867 5864 5863 5859 5854 5851 5849 5844 5835 5828 5821 5812 5803 5791 5778 5765 5751 5737 5722 5707 5691 5675 5658 5642 5628 5615 5602 5591 5580 5571 5561 5553 5545 5538 5531 5526 5522
5878 5877 5874 5873 5871 5869 5867 5864 5861 5858 5856 5851 5846 5844 5839 5829 5822 5814 5804 5791 5778 5765 5752 5738 5723 5707 5691 5675 5658 5641 5626 5612 5599 5586 5575 5564 5555 5546 5537 5530 5522 5514 5507 5502
5876 5874 5873 5871 5868 5866 5864 5861 5858 5855 5852 5848 5844 5836 5831 5822 5814 5803 5793 5781 5769 5755 5742 5726 5710 5694 5677 5660 5642 5627 5612 5598 5584 5572 5561 5551 5542 5533 5525 5517 5509 5502 5494 5488
5875 5873 5871 5869 5867 5864 5862 5859 5856 5852 5848 5844 5838 5830 5824 5814 5805 5795 5784 5772 5759 5745 5730 5714 5697 5680 5662 5645 5629 5614 5599 5586 5573 5562 5551 5541 5531 5521 5512 5504 5496 5489 5482 5475
5874 5872 5870 5868 5865 5862 5859 5857 5854 5849 5842 5836 5830 5824 5818 5809 5799 5788 5775 5763 5750 5735 5719 5702 5685 5667 5649 5633 5618 5603 5590 5577 5564 5553 5542 5531 5521 5510 5500 5491 5483 5475 5468 5462
5874 5871 5869 5866 5863 5861 5857 5853 5848 5842 5836 5833 5828 5822 5814 5802 5791 5780 5768 5756 5741 5725 5709 5692 5675 5657 5639 5624 5608 5593 5581 5568 5556 5544 5533 5521 5510 5499 5488 5478 5469 5462 5455 5448
5872 5870 5867 5864 5862 5859 5855 5851 5847 5841 5836 5832 5823 5813 5807 5796 5785 5774 5762 5747 5731 5715 5699 5681 5663 5645 5630 5613 5598 5585 5572 5560 5548 5536 5524 5512 5500 5488 5477 5467 5458 5450 5442 5435
5871 5869 5866 5862 5859 5856 5853 5848 5845 5839 5832 5823 5817 5810 5800 5789 5780 5768 5754 5738 5723 5706 5688 5670 5652 5636 5620 5604 5590 5577 5564 5551 5539 5527 5515 5503 5490 5478 5467 5458 5449 5440 5432 5424
5871 5869 5865 5862 5858 5855 5851 5845 5841 5834 5826 5818 5812 5804 5795 5784 5774 5760 5745 5730 5714 5698 5679 5660 5643 5627 5610 5596 5583 5570 5556 5543 5530 5518 5505 5493 5481 5469 5459 5450 5440 5431 5421 5413
5870 5868 5865 5860 5856 5852 5848 5843 5836 5830 5823 5814 5804 5801 5789 5778 5765 5752 5737 5721 5705 5689 5670 5652 5636 5619 5604 5590 5576 5563 5549 5536 5523 5511 5498 5485 5473 5462 5451 5441 5430 5421 5411 5402
5869 5866 5863 5859 5855 5849 5844 5838 5833 5827 5820 5811 5801 5795 5782 5771 5758 5744 5728 5713 5697 5680 5662 5645 5628 5612 5598 5584 5570 5556 5543 5529 5516 5503 5490 5478 5466 5454 5443 5432 5421 5411 5401 5391
5867 5864 5860 5857 5855 5849 5843 5837 5829 5823 5816 5807 5798 5790 5776 5763 5750 5736 5721 5707 5690 5673 5655 5638 5621 5606 5592 5579 5565 5550 5536 5523 5510 5496 5484 5471 5459 5447 5436 5424 5412 5400 5389 5379
5865 5862 5858 5854 5848 5842 5837 5832 5827 5819 5811 5803 5794 5783 5770 5758 5746 5731 5716 5700 5684 5666 5649 5632 5615 5601 5588 5574 5560 5546 5532 5518 5504 5491 5479 5466 5453 5440 5427 5414 5401 5388 5375 5364
5865 5861 5856 5851 5846 5841 5835 5829 5823 5816 5807 5799 5790 5779 5767 5755 5741 5726 5710 5694 5678 5660 5643 5626 5611 5598 5585 5571 5556 5541 5528 5513 5500 5487 5474 5461 5446 5432 5418 5403 5389 5374 5359 5345
5863 5859 5855 5851 5845 5839 5833 5826 5820 5812 5803 5794 5784 5774 5762 5748 5735 5720 5705 5689 5673 5656 5639 5622 5607 5594 5581 5567 5553 5538 5524 5509 5496 5483 5470 5456 5441 5426 5410 5394 5378 5361 5342 5326
5861 5856 5852 5847 5842 5837 5829 5822 5814 5807 5798 5789 5778 5769 5756 5743 5731 5717 5701 5685 5669 5652 5634 5618 5604 5591 5578 5564 5549 5534 5520 5506 5493 5480 5466 5451 5436 5420 5403 5386 5367 5347 5327 5310
5859 5853 5848 5843 5837 5831 5826 5816 5809 5802 5793 5783 5773 5763 5751 5738 5726 5712 5696 5681 5665 5647 5630 5614 5601 5589 5575 5561 5545 5531 5517 5503 5490 5478 5464 5448 5432 5415 5398 5379 5359 5337 5316 5300
5856 5850 5844 5838 5831 5826 5820 5811 5802 5795 5788 5779 5768 5757 5746 5734 5721 5708 5692 5676 5661 5643 5626 5611 5598 5586 5572 5558 5543 5529 5515 5502 5489 5476 5462 5447 5430 5413 5394 5375 5354 5332 5310 5295
5855 5849 5842 5835 5827 5820 5815 5805 5796 5789 5782 5773 5762 5752 5742 5730 5717 5703 5687 5672 5656 5639 5623 5609 5596 5584 5571 5556 5542 5528 5514 5501 5487 5474 5459 5444 5428 5410 5392 5372 5351 5328 5307 5293
5852 5847 5840 5832 5824 5817 5809 5799 5790 5784 5777 5767 5758 5748 5737 5726 5713 5699 5684 5669 5653 5637 5622 5606 5593 5582 5570 5556 5541 5527 5514 5500 5486 5472 5458 5443 5427 5410 5392 5373 5352 5330 5309 5295
5847 5841 5834 5826 5817 5812 5802 5792 5785 5780 5771 5762 5753 5743 5733 5721 5708 5694 5680 5665 5650 5635 5619 5604 5592 5581 5569 5555 5541 5528 5514 5500 5486 5472 5459 5444 5428 5412 5395 5377 5358 5337 5317 5301
5844 5838 5831 5824 5818 5808 5797 5788 5781 5774 5767 5758 5749 5739 5728 5717 5704 5691 5677 5662 5648 5633 5617 5603 5590 5579 5567 5555 5541 5528 5515 5501 5487 5474 5461 5447 5432 5416 5400 5383 5365 5346 5326 5309
5841 5835 5828 5821 5812 5804 5795 5785 5777 5770 5763 5754 5745 5735 5724 5713 5700 5687 5674 5660 5646 5631 5616 5602 5589 5578 5566 5554 5541 5529 5516 5503 5489 5476 5464 5451 5436 5421 5405 5389 5372 5355 5337 5320
5836 5830 5824 5817 5809 5801 5792 5783 5774 5766 5758 5750 5741 5731 5720 5709 5697 5684 5671 5657 5643 5629 5614 5601 5589 5578 5566 5554 5543 5530 5518 5505 5492 5479 5467 5454 5441 5426 5411 5395 5379 5363 5346 5331
5832 5826 5819 5814 5806 5798 5789 5779 5770 5762 5754 5746 5736 5726 5716 5705 5693 5681 5668 5655 5641 5627 5613 5600 5588 5577 5566 5555 5544 5532 5520 5508 5496 5484 5472 5459 5446 5432 5418 5403 5388 5374 5359 5345